Location: Killarney Provincial Park Observatory
(46.0124°N, 81.4000°W)
Time: 23:29:11
(UTC-04:00)

Iridium 22 - Visible Passes

Search period start: 16 September 2014 00:00
Search period end: 26 September 2014 00:00
Orbit: 776 x 779 km, 86.4° (Epoch: 16 September)

Date Brightness Start Highest point End Pass type
(mag) Time Alt. Az. Time Alt. Az. Time Alt. Az.
16 Sep 8.0 00:29:00 16° NW 00:29:00 16° NW 00:30:54 10° NNW visible
16 Sep 7.0 22:15:02 24° NE 22:15:02 24° NE 22:17:27 10° NNE visible
16 Sep 7.6 23:55:29 24° NW 23:55:29 24° NW 23:58:06 10° NNW visible
17 Sep 7.3 21:41:31 17° NE 21:41:31 17° NE 21:43:16 10° NNE visible
17 Sep 7.1 23:21:58 32° NNW 23:21:58 32° NNW 23:24:54 10° N visible
18 Sep 7.7 21:07:59 10° NE 21:07:59 10° NE 21:08:03 10° NE visible
18 Sep 6.7 22:48:26 36° N 22:48:26 36° N 22:51:27 10° N visible
19 Sep 8.3 00:28:54 12° NW 00:28:54 12° NW 00:30:05 10° NW visible
19 Sep 6.7 22:14:54 31° NNE 22:14:54 31° NNE 22:17:46 10° NNE visible
19 Sep 7.8 23:55:22 20° NW 23:55:22 20° NW 23:57:49 10° NNW visible
20 Sep 7.0 21:41:21 22° NE 21:41:21 22° NE 21:43:48 10° NNE visible
20 Sep 7.3 23:21:48 29° NW 23:21:48 29° NW 23:24:50 10° NNW visible
21 Sep 7.4 21:07:47 15° NE 21:07:47 15° NE 21:09:22 10° NE visible
21 Sep 6.7 22:48:14 38° NNW 22:48:14 38° NNW 22:51:31 10° N visible
22 Sep 6.4 22:14:39 40° NNE 22:14:39 40° NNE 22:17:58 10° N visible
22 Sep 8.1 23:55:06 16° WNW 23:55:06 16° WNW 23:57:18 10° NNW visible
23 Sep 6.6 21:41:03 31° NE 21:41:03 31° NE 21:44:11 10° NNE visible
23 Sep 7.5 23:21:30 25° NW 23:21:30 25° NW 23:24:38 10° NNW visible
24 Sep 7.0 21:07:26 21° ENE 21:07:26 21° ENE 21:10:05 10° NNE visible
24 Sep 6.8 22:47:53 38° NW 22:47:53 38° NW 22:51:30 10° N visible
25 Sep 7.4 20:33:47 13° ENE 20:33:47 13° ENE 20:35:15 10° NE visible
25 Sep 6.1 22:14:14 50° N 22:14:14 50° N 22:18:05 10° N visible
25 Sep 8.3 23:54:41 12° WNW 23:54:41 12° WNW 23:56:10 10° NW visible
